Location: Eschertshofen
(49.3064°N, 11.5756°E)
Time: 22:28:56
(UTC+00:00)

Cosmos 1048 Rocket - Pass Details

Date: 18 September 2020
Orbit: 742 x 792 km, 74.0° (Epoch: 30 October)

Event Time Altitude Azimuth Distance (km) Brightness Sun altitude
Rises 19:23:50 0° 334° (NNW) 3,257 8.1 -20.2°
Reaches altitude 10° 19:26:13 10° 332° (NNW) 2,333 7.3 -20.6°
Maximum altitude 19:31:28 66° 251° (WSW) 853 4.3 -21.3°
Enters shadow 19:34:13 28° 177° (S) 1,427 5.1 -21.7°
